Time,TemperatureF,DewpointF,PressureIn,WindDirection,WindDirectionDegrees,WindSpeedMPH,WindSpeedGustMPH,Humidity,HourlyPrecipIn,Conditions,Clouds,dailyrainin,SoftwareType,DateUTC
2013-12-03 00:00:00,36.2,34.0,29.95,West,270,0.0,0.0,92,0.00,,,0.00,WUHU216HW,2013-12-03 05:00:00,
2013-12-03 00:01:00,36.2,34.0,29.95,West,270,0.0,0.0,92,0.00,,,0.00,WUHU216HW,2013-12-03 05:01:00,
2013-12-03 00:02:00,36.2,34.0,29.95,West,270,0.0,0.0,92,0.00,,,0.00,WUHU216HW,2013-12-03 05:02:00,
2013-12-03 00:07:00,36.2,34.0,29.95,West,270,0.0,0.0,92,0.00,,,0.00,WUHU216HW,2013-12-03 05:07:00,
2013-12-03 00:30:00,36.4,34.5,29.94,WNW,293,0.0,0.0,93,0.00,,,0.00,WUHU216HW,2013-12-03 05:30:00,
2013-12-03 00:35:00,36.4,34.5,29.94,WNW,293,0.0,0.0,93,0.00,,,0.00,WUHU216HW,2013-12-03 05:35:00,
2013-12-03 01:00:00,36.4,34.5,29.94,SW,225,0.4,0.4,93,0.00,,,0.00,WUHU216HW,2013-12-03 06:00:00,
2013-12-03 01:05:00,36.4,34.5,29.94,SW,225,0.4,0.4,93,0.00,,,0.00,WUHU216HW,2013-12-03 06:05:00,
2013-12-03 01:30:00,36.4,34.5,29.93,WNW,293,0.0,0.0,93,0.00,,,0.00,WUHU216HW,2013-12-03 06:30:00,
2013-12-03 01:35:00,36.4,34.5,29.93,WNW,293,0.0,0.0,93,0.00,,,0.00,WUHU216HW,2013-12-03 06:35:00,
2013-12-03 01:59:00,36.4,34.5,29.93,East,90,0.9,0.9,93,0.00,,,0.00,WUHU216HW,2013-12-03 06:59:00,
2013-12-03 02:00:00,36.4,34.5,29.93,East,90,0.9,0.9,93,0.00,,,0.00,WUHU216HW,2013-12-03 07:00:00,
2013-12-03 02:05:00,36.4,34.5,29.93,East,90,0.9,0.9,93,0.00,,,0.00,WUHU216HW,2013-12-03 07:05:00,
2013-12-03 02:30:00,36.4,34.5,29.94,NE,45,0.4,0.4,93,0.00,,,0.00,WUHU216HW,2013-12-03 07:30:00,
2013-12-03 02:35:00,36.4,34.5,29.94,NE,45,0.4,0.4,93,0.00,,,0.00,WUHU216HW,2013-12-03 07:35:00,
2013-12-03 02:59:00,36.4,34.5,29.93,ENE,68,0.7,0.7,93,0.00,,,0.00,WUHU216HW,2013-12-03 07:59:00,
2013-12-03 03:00:00,36.4,34.5,29.93,ENE,68,0.7,0.7,93,0.00,,,0.00,WUHU216HW,2013-12-03 08:00:00,
2013-12-03 03:05:00,36.4,34.5,29.93,ENE,68,0.7,0.7,93,0.00,,,0.00,WUHU216HW,2013-12-03 08:05:00,
2013-12-03 03:30:00,36.4,34.5,29.92,WNW,293,0.0,0.0,93,0.00,,,0.00,WUHU216HW,2013-12-03 08:30:00,
2013-12-03 03:35:00,36.4,34.5,29.92,WNW,293,0.0,0.0,93,0.00,,,0.00,WUHU216HW,2013-12-03 08:35:00,
2013-12-03 03:59:00,36.2,34.3,29.92,North,0,0.0,0.0,93,0.00,,,0.00,WUHU216HW,2013-12-03 08:59:00,
2013-12-03 04:00:00,36.2,34.3,29.92,North,0,0.0,0.0,93,0.00,,,0.00,WUHU216HW,2013-12-03 09:00:00,
2013-12-03 04:05:00,36.2,34.3,29.92,North,0,0.0,0.0,93,0.00,,,0.00,WUHU216HW,2013-12-03 09:05:00,
2013-12-03 04:30:00,36.0,34.1,29.92,NNW,338,0.0,0.0,93,0.00,,,0.00,WUHU216HW,2013-12-03 09:30:00,
2013-12-03 04:35:00,36.0,34.1,29.92,NNW,338,0.0,0.0,93,0.00,,,0.00,WUHU216HW,2013-12-03 09:35:00,
2013-12-03 05:00:00,35.8,33.9,29.93,ENE,68,0.2,0.2,93,0.00,,,0.00,WUHU216HW,2013-12-03 10:00:00,
2013-12-03 05:05:00,35.8,33.9,29.93,ENE,68,0.2,0.2,93,0.00,,,0.00,WUHU216HW,2013-12-03 10:05:00,
2013-12-03 05:30:00,35.8,33.9,29.93,West,270,0.0,0.0,93,0.00,,,0.00,WUHU216HW,2013-12-03 10:30:00,
2013-12-03 05:35:00,35.8,33.9,29.93,West,270,0.0,0.0,93,0.00,,,0.00,WUHU216HW,2013-12-03 10:35:00,
2013-12-03 05:59:00,35.6,33.8,29.94,ENE,68,0.7,0.7,93,0.00,,,0.00,WUHU216HW,2013-12-03 10:59:00,
2013-12-03 06:00:00,35.6,33.8,29.94,ENE,68,0.7,0.7,93,0.00,,,0.00,WUHU216HW,2013-12-03 11:00:00,
2013-12-03 06:05:00,35.6,33.8,29.94,ENE,68,0.7,0.7,93,0.00,,,0.00,WUHU216HW,2013-12-03 11:05:00,
2013-12-03 06:30:00,35.6,33.8,29.93,WSW,248,0.4,0.4,93,0.00,,,0.00,WUHU216HW,2013-12-03 11:30:00,
2013-12-03 06:35:00,35.6,33.8,29.93,WSW,248,0.4,0.4,93,0.00,,,0.00,WUHU216HW,2013-12-03 11:35:00,
2013-12-03 06:59:00,35.5,33.6,29.94,WSW,248,0.0,0.0,93,0.00,,,0.00,WUHU216HW,2013-12-03 11:59:00,
2013-12-03 07:00:00,35.5,33.6,29.94,WSW,248,0.0,0.0,93,0.00,,,0.00,WUHU216HW,2013-12-03 12:00:00,
2013-12-03 07:05:00,35.5,33.6,29.94,WSW,248,0.0,0.0,93,0.00,,,0.00,WUHU216HW,2013-12-03 12:05:00,
2013-12-03 07:30:00,35.3,33.4,29.94,SE,135,1.6,1.6,93,0.00,,,0.00,WUHU216HW,2013-12-03 12:30:00,
2013-12-03 07:35:00,35.3,33.4,29.94,SE,135,1.6,1.6,93,0.00,,,0.00,WUHU216HW,2013-12-03 12:35:00,
2013-12-03 08:00:00,35.5,33.6,29.94,NNW,338,1.1,1.1,93,0.00,,,0.00,WUHU216HW,2013-12-03 13:00:00,
2013-12-03 08:05:00,35.5,33.6,29.94,NNW,338,1.1,1.1,93,0.00,,,0.00,WUHU216HW,2013-12-03 13:05:00,
2013-12-03 18:00:00,35.3,30.9,29.93,NNW,338,0.0,0.0,84,0.00,,,0.00,WUHU216HW,2013-12-03 23:00:00,
2013-12-03 18:05:00,35.3,30.9,29.93,NNW,338,0.0,0.0,84,0.00,,,0.00,WUHU216HW,2013-12-03 23:05:00,
2013-12-03 18:30:00,34.2,29.8,29.93,NNW,338,0.0,0.0,84,0.00,,,0.00,WUHU216HW,2013-12-03 23:30:00,
2013-12-03 18:35:00,34.2,29.8,29.93,NNW,338,0.0,0.0,84,0.00,,,0.00,WUHU216HW,2013-12-03 23:35:00,
2013-12-03 19:00:00,33.1,29.9,29.94,NNW,338,0.0,0.0,88,0.00,,,0.00,WUHU216HW,2013-12-04 00:00:00,
2013-12-03 19:05:00,33.1,29.9,29.94,NNW,338,0.0,0.0,88,0.00,,,0.00,WUHU216HW,2013-12-04 00:05:00,
2013-12-03 19:30:00,32.0,29.0,29.94,NNW,338,0.0,0.0,88,0.00,,,0.00,WUHU216HW,2013-12-04 00:30:00,
2013-12-03 19:35:00,32.0,29.0,29.94,NNW,338,0.0,0.0,88,0.00,,,0.00,WUHU216HW,2013-12-04 00:35:00,
2013-12-03 20:00:00,31.1,28.1,29.95,NNW,338,0.0,0.0,88,0.00,,,0.00,WUHU216HW,2013-12-04 01:00:00,
2013-12-03 20:05:00,31.1,28.1,29.95,NNW,338,0.0,0.0,88,0.00,,,0.00,WUHU216HW,2013-12-04 01:05:00,
2013-12-03 20:10:00,31.1,28.1,29.95,NNW,338,0.0,0.0,88,0.00,,,0.00,WUHU216HW,2013-12-04 01:10:00,
2013-12-03 20:30:00,30.4,27.6,29.95,NNW,338,0.0,0.0,89,0.00,,,0.00,WUHU216HW,2013-12-04 01:30:00,
2013-12-03 20:35:00,30.4,27.6,29.95,NNW,338,0.0,0.0,89,0.00,,,0.00,WUHU216HW,2013-12-04 01:35:00,
2013-12-03 21:00:00,30.1,27.0,29.95,NNW,338,0.0,0.0,88,0.00,,,0.00,WUHU216HW,2013-12-04 02:00:00,
2013-12-03 21:05:00,30.1,27.0,29.95,NNW,338,0.0,0.0,88,0.00,,,0.00,WUHU216HW,2013-12-04 02:05:00,
2013-12-03 21:30:00,29.5,26.5,29.95,NNW,338,0.0,0.0,88,0.00,,,0.00,WUHU216HW,2013-12-04 02:30:00,
2013-12-03 21:35:00,29.5,26.5,29.95,NNW,338,0.0,0.0,88,0.00,,,0.00,WUHU216HW,2013-12-04 02:35:00,
2013-12-03 22:00:00,29.0,25.9,29.96,NNW,338,0.0,0.0,88,0.00,,,0.00,WUHU216HW,2013-12-04 03:00:00,
2013-12-03 22:05:00,29.0,25.9,29.96,NNW,338,0.0,0.0,88,0.00,,,0.00,WUHU216HW,2013-12-04 03:05:00,
2013-12-03 22:30:00,28.6,25.6,29.96,NNW,338,0.0,0.0,88,0.00,,,0.00,WUHU216HW,2013-12-04 03:30:00,
2013-12-03 22:35:00,28.6,25.6,29.96,NNW,338,0.0,0.0,88,0.00,,,0.00,WUHU216HW,2013-12-04 03:35:00,
2013-12-03 23:00:00,28.4,25.7,29.96,NNW,338,0.0,0.0,89,0.00,,,0.00,WUHU216HW,2013-12-04 04:00:00,
2013-12-03 23:05:00,28.4,25.7,29.96,NNW,338,0.0,0.0,89,0.00,,,0.00,WUHU216HW,2013-12-04 04:05:00,
2013-12-03 23:30:00,28.1,25.3,29.97,NNW,338,0.0,0.0,89,0.00,,,0.00,WUHU216HW,2013-12-04 04:30:00,
2013-12-03 23:35:00,28.1,25.3,29.97,NNW,338,0.0,0.0,89,0.00,,,0.00,WUHU216HW,2013-12-04 04:35:00,